Regional Weather Roundup
Issued by NWS

Home | Current Version | Previous Version | Text Only | Print | Product List | Glossary On
Versions: 1 2 3 4 5 6 7 8 9 10 11 12 13 14 15 16 17 18 19 20 21 22 23 24 25 26 27 28 29 30 31 32 33 34 35 36 37 38 39 40 41 42 43 44 45 46 47 48 49 50
800
ASUS43 KDMX 230306
RWRIA

WEATHER ROUNDUP FOR IOWA
NATIONAL WEATHER SERVICE DES MOINES IA
900 PM CST SUN JAN 22 2017

NOTE: "FAIR" INDICATES FEW OR NO CLOUDS BELOW 12,000 FEET WITH NO
SIGNIFICANT WEATHER AND/OR OBSTRUCTIONS TO VISIBILITY.

* - THESE STATIONS ARE NOT NWS STATIONS...THUS NOT UNDER NWS
QUALITY CONTROL.  THEY ALSO DO NOT REPORT WEATHER SUCH
AS PRECIPITATION OR FOG.

IAZ001>003-012>014-020>022-031>034-043>046-230400-
   NORTHWEST IOWA

CITY           SKY/WX    TMP DP  RH WIND       PRES   REMARKS
CARROLL *      CLOUDY    32  32 100 NW16      29.84S FOG     WCI  21
CHEROKEE *     CLOUDY    31  30  97 NW7       29.86S WCI  24
DENISON *      CLOUDY    32  30  93 NW9       29.84S WCI  24
LE MARS *      CLOUDY    32  28  86 NW9       29.88S WCI  24
ORANGE CITY *  CLOUDY    30  28  93 NW16      29.85S WCI  19
SHELDON *      CLOUDY    30  32 100 NW15      29.83S WCI  19
SIOUX CITY     CLOUDY    31  28  89 NW5       29.88S WCI  26
SPENCER          N/A    N/A N/A N/A MISG      29.84S
STORM LAKE *   CLOUDY    30  30 100 NW14G21   29.84S FOG     WCI  20
$$

IAZ055>058-069>071-079>083-090>094-230400-
   SOUTHWEST IOWA

CITY           SKY/WX    TMP DP  RH WIND       PRES   REMARKS
ATLANTIC *     MOCLDY    34  32  93 NW15      29.86R WCI  24
AUDUBON *      CLOUDY    32  30  93 NW5       29.85S FOG     WCI  27
CLARINDA *     MOCLDY    36  36 100 N10       29.88R WCI  28
COUNCIL BLFS * CLEAR     32  32 100 NW6       29.86S WCI  26
CRESTON *      CLOUDY    36  36 100 NW10      29.84R WCI  28
HARLAN  *      CLOUDY    32  32 100 N13       29.88F WCI  22
LAMONI         CLOUDY    37  35  92 NW12      29.81R WCI  29
RED OAK *      PTCLDY    34  32  93 N7        29.87S WCI  28
SHENANDOAH *   CLEAR     34  32  93 CALM      29.88S
$$

IAZ047>049-059>061-072>074-084-230400-
   CENTRAL IOWA

CITY           SKY/WX    TMP DP  RH WIND       PRES   REMARKS
AMES           CLOUDY    37  37 100 NW10      29.81S WCI  30
ANKENY *       CLOUDY    37  36  93 NW9       29.83R WCI  31
BOONE *        CLOUDY    36  36 100 NW10      29.81R FOG     WCI  28
CHARITON *     CLOUDY    36  36 100 NW13G20   29.79S FOG     WCI  27
DES MOINES     CLOUDY    38  36  92 NW15      29.82R FOG     WCI  29
GRINNELL*      CLOUDY    36  35  96 NW8       29.79R FOG     WCI  29
KNOXVILLE *    CLOUDY    37  36  93 NW12      29.79R FOG     WCI  30
MARSHALLTOWN   CLOUDY    36  35  96 NW9       29.78S WCI  29
NEWTON *       CLOUDY    37  36  93 NW13      29.79R FOG     WCI  29
PELLA *        MOCLDY    37  36  94 NW10      29.80R WCI  30
PERRY *        CLOUDY    36  35  96 NW15      29.84R FOG     WCI  26
$$

IAZ004>006-015-016-023>025-035-036-230400-
   NORTH CENTRAL IOWA

CITY           SKY/WX    TMP DP  RH WIND       PRES   REMARKS
ALGONA *       CLOUDY    34  34 100 NW13      29.82S FOG     WCI  25
CLARION *      CLOUDY    36  36 100 NW12      29.81R WCI  27
ESTHERVILLE    CLOUDY    30  30 100 NW15      29.83R FOG     WCI  19
FORT DODGE *   CLOUDY    34  30  86 NW14G20   29.83R WCI  24
MASON CITY     FOG       34  33  96 NW10      29.81R VSB 3/4 WCI  26
FOREST CITY *  FOG       34  34 100 NW9       29.80S VSB 3/4 WCI  26
WEBSTER CITY * CLOUDY    36 N/A N/A NW10      29.80R HAZE    WCI  28
IOWA FALLS *   FOG       36  35  96 NW10      29.80R VSB 1/2 WCI  29
$$

IAZ007>011-017>019-026>030-037>042-050>054-066-230400-
   NORTHEAST IOWA

CITY           SKY/WX    TMP DP  RH WIND       PRES   REMARKS
CEDAR RAPIDS   CLOUDY    34  33  96 NW14      29.73S FOG     WCI  25
CHARLES CITY * CLOUDY    36  36 100 NW7       29.78S FOG     WCI  30
CLINTON *      CLOUDY    35  34  96 NW7       29.72R WCI  29
DECORAH *      CLOUDY    36  34  93 NW7       29.74S FOG     WCI  30
DUBUQUE        CLOUDY    35  34  96 N12       29.70S FOG     WCI  27
MONTICELLO *   CLOUDY    36  36 100 NW12      29.71F FOG     WCI  27
OELWEIN *      CLOUDY    34  34 100 NW10      29.76R WCI  26
WATERLOO       CLOUDY    35  33  92 NW13      29.77R WCI  26
$$

IAZ064-065-067-068-078-230400-
   EAST CENTRAL IOWA

CITY           SKY/WX    TMP DP  RH WIND       PRES   REMARKS
DAVENPORT      CLOUDY    35  34  96 NW7       29.72R WCI  29
IOWA CITY      CLOUDY    38  34  85 NW12      29.75S WCI  30
MUSCATINE *    CLOUDY    37  36  93 NW9       29.75R WCI  31
QUAD CITIES    CLOUDY    36  33  89 NW5       29.72R FOG     WCI  32
$$

IAZ062-063-075>077-085>089-095>099-230400-
   SOUTHEAST IOWA

CITY           SKY/WX    TMP DP  RH WIND       PRES   REMARKS
BURLINGTON     PTCLDY    35  34  96 NW8       29.73R WCI  29
FAIRFIELD *    CLOUDY    37  36  93 NW10      29.76R WCI  30
FORT MADISON * CLOUDY    36  36 100 NW7       29.76R WCI  30
KEOKUK *       CLOUDY    37 N/A N/A NW6       29.76R WCI  33
OSKALOOSA *    CLOUDY    36  35  96 NW12      29.77S FOG     WCI  28
CENTERVILLE *  CLOUDY    36  36 100 NW14      29.79R WCI  27
OTTUMWA        CLOUDY    38  35  89 NW17      29.75S WCI  28
WASHINGTON *   CLOUDY    37  37 100 NW12      29.76R FOG     WCI  30
$$

ABBREVIATIONS USED IN REMARKS
   TC - TEMPERATURES IN CELSIUS
  WCI - WIND CHILL INDEX
   HX - HEAT INDEX
  VSB - VISIBILITY
$$





USA.gov is the U.S. government's official web portal to all federal, state and local government web resources and services.